www.pogodaiklimat.ru

Погода и климат >> Архив погоды >> Великобритания >> Кесвик


ПОГОДА в Кесвике

  • Прогноз погоды в Кесвике
  • Монитор погоды в Кесвике

АРХИВ ПОГОДЫ в Кесвике

Время (UTC), дата Ветер
(напр.,м/с)
 
Видим.   Явления Облачность Т
(С)
Тd
(С)
f
(%)
Тe
(С)
Тes
(С)
Комфортность P
(гПа)
Po
(гПа)
Тmin
(С)
Tmax
(С)
R
(мм)
R24
(мм)
S
(см)
10 12.06 С 6-11
{13}
19 км н/о +11.4 +7.7 78 +9 +9 1014.3 1004.5
11 12.06 С 5-11
{14}
16 км н/о +12.2 +8.0 75 +10 +10 1013.7 1003.9
12 12.06 С 4-10
{13}
12 км н/о +12.3 +8.5 78 +10 +10 1013.5 1003.7 0.0
13 12.06 С 2 10 км н/о +12.6 +8.5 76 +12 +12 1013.0 1003.3
14 12.06 СЗ 3 35 км н/о +12.4 +8.7 78 +11 +11 1012.7 1003.0
15 12.06 С 4 18 км н/о +12.4 +9.0 80 +11 +11 1012.0 1002.3
16 12.06 С 2 29 км н/о +12.5 +9.2 80 +12 +12 1011.6 1001.9
17 12.06 С 2 29 км н/о +12.5 +9.0 79 +12 +12 1011.5 1001.7
18 12.06 З 2 12 км в посл. час дождь н/о +11.7 +9.8 88 +11 +11 1010.9 1001.1 +12.8 0.0
19 12.06 С 3 14 км слаб. ливневой дождь н/о +12.4 +9.6 83 +11 +11 1010.3 1000.6
20 12.06 С 3 14 км слаб. дождь н/о +12.0 +9.9 87 +10 +10 1009.8 1000.1
21 12.06 С 3 21 км слаб. дождь н/о +11.8 +9.6 86 +10 +10 1009.5 999.8
22 12.06 С 4 13 км слаб. дождь н/о +11.8 +9.4 85 +10 +10 1008.4 998.6
23 12.06 С 3 16 км слаб. морось с дождем н/о +12.0 +9.1 82 +10 +10 1007.9 998.2
00 13.06 С 4 6000 м дождь н/о +11.5 +9.3 86 +9 +9 1007.9 998.1 2
01 13.06 СВ 2 11 км слаб. дождь н/о +11.1 +9.5 90 +10 +10 1007.5 997.8
02 13.06 С 5 9000 м дождь н/о +10.2 +8.1 87 +7 +7 1006.7 996.9
03 13.06 С 5 11 км дождь н/о +9.8 +7.7 87 +7 +7 1006.3 996.6
04 13.06 С 4
{14}
10 км дождь н/о +9.3 +7.5 89 +6 +6 1005.8 996.1
05 13.06 С 6-11
{13}
22 км слаб. дождь н/о +9.3 +7.1 86 +6 +6 1005.3 995.5
06 13.06 С 5-11
{13}
13 км дождь н/о +9.0 +6.9 87 +6 +6 1005.0 995.2 +8.9 14
07 13.06 С 4 20 км слаб. дождь н/о +9.1 +6.4 83 +6 +6 1005.3 995.5
08 13.06 З 2 20 км слаб. дождь н/о +8.2 +6.9 92 +6 +6 1005.6 995.8
09 13.06 З 3 7000 м сильн. дождь н/о +8.0 +6.8 92 +5 +5 1005.1 995.2
10 13.06 Ю 2 14 км дождь н/о +8.6 +7.2 91 +7 +7 1004.5 994.7
11 13.06 З 2 45 км дождь н/о +9.5 +6.4 81 +8 +8 1004.2 994.4
12 13.06 З 2 26 км слаб. дождь н/о +10.2 +7.1 81 +9 +9 1003.9 994.1 3
13 13.06 СЗ 1 30 км слаб. дождь н/о +9.7 +7.9 89 +9 +9 1003.9 994.2
14 13.06 СЗ 1 29 км слаб. дождь н/о +10.6 +8.9 89 +10 +10 1003.6 993.9
15 13.06 СЗ 1 40 км в посл. час дождь н/о +10.6 +8.0 84 +10 +10 1003.5 993.7
16 13.06 З 1 50 км н/о +10.4 +7.4 82 +10 +10 1003.3 993.5
17 13.06 З 1 45 км н/о +10.6 +6.6 76 +11 +11 1003.2 993.5
18 13.06 штиль 0 50 км н/о +10.1 +7.7 85 +9 +9 1003.2 993.5 +11.3 4
19 13.06 штиль 0 50 км н/о +10.2 +7.7 84 +10 +10 1003.3 993.6
20 13.06 З 1 50 км н/о +9.9 +7.2 83 +10 +10 1003.4 993.6
21 13.06 ЮВ 1 50 км н/о +9.6 +6.7 82 +10 +10 1004.2 994.4
22 13.06 В 1 50 км в посл. час дождь н/о +9.1 +6.8 86 +9 +9 1004.4 994.6
23 13.06 В 2 30 км в посл. час туман н/о +9.0 +6.9 87 +8 +8 1004.4 994.6
00 14.06 В 1 35 км н/о +8.7 +7.1 90 +9 +9 1004.4 994.6 0.0
01 14.06 штиль 0 30 км н/о +8.5 +7.0 90 +8 +8 1004.0 994.2
02 14.06 ЮЗ 2 40 км в посл. час дождь н/о +8.8 +6.0 83 +7 +7 1004.1 994.3
03 14.06 В 1 24 км н/о +7.1 +4.5 84 +7 +7 1004.2 994.3
04 14.06 В 1 40 км н/о +7.9 +5.8 87 +8 +8 1004.4 994.6
05 14.06 В 2 22 км слаб. ливневой дождь н/о +8.2 +6.6 90 +6 +6 1004.7 994.9
06 14.06 В 3 30 км в посл. час дождь н/о +9.5 +6.5 82 +7 +7 1004.8 995.0 +6.8 0.0
07 14.06 В 2 30 км н/о +10.0 +5.8 75 +9 +9 1004.8 995.1
08 14.06 ЮВ 2 19 км н/о +10.1 +6.9 81 +9 +9 1005.2 995.5
09 14.06 ЮВ 3 26 км н/о +11.7 +6.9 72 +10 +10 1005.4 995.7
10 14.06 ЮВ 2 17 км слаб. морось с дождем н/о +10.8 +7.7 81 +9 +9 1005.8 996.1
11 14.06 ЮВ 2 35 км в посл. час дождь н/о +12.3 +7.3 72 +11 +11 1006.2 996.5
12 14.06 ЮЗ 3 35 км н/о +14.0 +5.9 58 +13 +13 1006.3 996.7 0.0
13 14.06 Ю 3 35 км н/о +14.3 +6.5 59 +14 +14 1006.7 997.0
14 14.06 Ю 3 40 км н/о +15.7 +7.0 56 +15 +15 1006.9 997.3
15 14.06 Ю 3 27 км н/о +15.0 +6.8 58 +15 +15 1007.1 997.4
16 14.06 Ю 3 35 км н/о +14.8 +5.9 55 +14 +14 1007.4 997.8
17 14.06 ЮВ 2 45 км н/о +14.4 +6.5 59 +14 +14 1007.5 997.9
18 14.06 ЮВ 2 40 км н/о +14.8 +7.6 62 +15 +15 1007.5 997.9 +15.7 0.0
19 14.06 ЮВ 2 35 км н/о +14.2 +7.3 63 +14 +14 1007.7 998.1
20 14.06 В 2 29 км н/о +13.5 +8.0 69 +13 +13 1008.0 998.3
21 14.06 В 2 35 км н/о +13.0 +8.2 73 +12 +12 1008.4 998.7
22 14.06 В 2 30 км в посл. час туман н/о +11.9 +8.5 80 +11 +11 1008.5 998.8
23 14.06 В 2 30 км н/о +11.4 +8.2 81 +10 +10 1008.6 998.8
00 15.06 штиль 0 35 км в посл. час дождь н/о +10.8 +8.4 85 +10 +10 1008.5 998.7 0.0
01 15.06 В 3 8000 м ливневой дождь н/о +11.6 +9.6 88 +10 +10 1008.6 998.9
02 15.06 В 2 18 км в посл. час дождь н/о +11.5 +10.0 90 +10 +10 1008.5 998.8
03 15.06 ЮВ 2 29 км н/о +11.5 +8.5 82 +10 +10 1008.4 998.6
04 15.06 ЮВ 2 30 км н/о +11.6 +8.6 82 +10 +10 1008.2 998.5
05 15.06 В 3 19 км слаб. ливневой дождь н/о +11.1 +8.9 86 +9 +9 1008.2 998.4
06 15.06 В 2 27 км в посл. час дождь н/о +11.4 +8.7 83 +11 +11 1008.0 998.2 +10.7 0.6
07 15.06 В 2 25 км н/о +12.3 +9.3 82 +11 +11 1008.1 998.4
08 15.06 В 5 23 км н/о +12.7 +9.2 79 +11 +11 1007.9 998.2
09 15.06 ЮВ 3 45 км н/о +13.5 +9.1 75 +13 +13 1008.1 998.4
10 15.06 ЮВ 3 13 км слаб. морось с дождем н/о +12.7 +9.7 82 +11 +11 1008.4 998.7
11 15.06 ЮВ 3 30 км в посл. час дождь н/о +14.0 +9.7 75 +13 +13 1008.5 998.8
12 15.06 Ю 3 22 км слаб. ливневой дождь н/о +14.5 +9.8 73 +14 +14 1008.3 998.7 0.0
13 15.06 Ю 4 40 км в посл. час дождь н/о +15.5 +9.7 68 +15 +15 1008.7 999.1
14 15.06 Ю 4 35 км н/о +15.7 +6.9 56 +15 +15 1009.1 999.5
15 15.06 ЮЗ 4 45 км н/о +15.9 +5.5 50 +15 +15 1009.4 999.8
16 15.06 ЮЗ 2 35 км н/о +16.6 +5.7 48 +17 +17 1009.1 999.5
17 15.06 Ю 3 40 км н/о +15.8 +5.4 50 +15 +15 1009.3 999.7
18 15.06 Ю 3 50 км н/о +14.8 +4.0 48 +14 +14 1009.2 999.6 +16.8 1
19 15.06 Ю 3 50 км н/о +13.3 +4.4 55 +13 +13 1009.7 1000.0
20 15.06 ЮЗ 2 50 км н/о +12.2 +3.7 56 +12 +12 1010.1 1000.3
21 15.06 В 1 50 км н/о +9.8 +4.9 72 +9 +9 1010.5 1000.6
22 15.06 В 1 40 км н/о +9.5 +5.1 74 +9 +9 1010.8 1000.9
23 15.06 В 1 45 км н/о +8.9 +4.8 75 +8 +8 1011.1 1001.2
00 16.06 СВ 1 45 км н/о +8.3 +4.7 78 +9 +9 1011.0 1001.2
01 16.06 В 1 40 км н/о +7.6 +4.6 81 +7 +7 1011.0 1001.1
02 16.06 В 2 35 км н/о +8.4 +5.8 84 +7 +7 1010.7 1000.9
03 16.06 В 1 35 км н/о +9.1 +6.4 83 +8 +8 1010.5 1000.6
04 16.06 СВ 1 45 км н/о +8.3 +5.9 85 +9 +9 1010.4 1000.5
05 16.06 В 2 29 км н/о +9.7 +7.0 83 +8 +8 1010.6 1000.7
06 16.06 В 2 35 км слаб. ливневой дождь н/о +9.9 +7.6 86 +8 +8 1010.6 1000.8 +7.5 0.2
07 16.06 Ю 3 50 км в посл. час дождь н/о +12.6 +6.6 67 +12 +12 1010.7 1001.0
08 16.06 Ю 3 50 км н/о +13.4 +6.7 64 +12 +12 1010.9 1001.2
09 16.06 Ю 3 50 км н/о +12.7 +7.2 69 +11 +11 1011.1 1001.4
10 16.06 ЮВ 3 45 км н/о +12.7 +7.9 73 +12 +12 1011.2 1001.5
11 16.06 ЮВ 4 27 км в посл. час дождь н/о +15.0 +10.2 73 +14 +14 1011.0 1001.4
12 16.06 Ю 3 45 км н/о +15.6 +7.8 60 +15 +15 1010.9 1001.3 0.0
13 16.06 ЮЗ 3 45 км н/о +17.0 +6.5 50 +17 +17 1010.7 1001.1
14 16.06 Ю 3 45 км н/о +15.6 +7.5 59 +15 +15 1010.7 1001.1
15 16.06 ЮВ 3 14 км ливневой дождь н/о +14.4 +9.5 72 +14 +14 1010.7 1001.0
16 16.06 ЮЗ 4 18 км в посл. час дождь н/о +14.3 +8.2 67 +13 +13 1010.9 1001.3
17 16.06 Ю 4 50 км н/о +14.2 +8.2 67 +13 +13 1010.8 1001.1
18 16.06 Ю 3 50 км н/о +15.0 +7.9 62 +14 +14 1010.1 1000.4 +17.1 0.2
19 16.06 ЮВ 2 8000 м ливневой дождь н/о +13.0 +10.6 85 +12 +12 1010.2 1000.5
20 16.06 СВ 1 10 км дождь н/о +12.2 +11.1 93 +13 +13 1009.5 999.8
21 16.06 ЮЗ 4 6000 м сильн. дождь н/о +13.6 +11.6 88 +12 +12 1009.4 999.7
22 16.06 Ю 5 7000 м дождь н/о +13.3 +11.5 89 +11 +11 1009.3 999.6
23 16.06 ЮЗ 4 22 км слаб. дождь н/о +13.6 +10.7 83 +12 +12 1009.4 999.7
00 17.06 ЮЗ 4 45 км в посл. час дождь н/о +13.5 +9.3 76 +12 +12 1009.5 999.8 11
01 17.06 Ю 2 15 км ливневой дождь н/о +12.6 +10.2 85 +12 +12 1009.7 1000.0
02 17.06 ЮЗ 4 24 км слаб. дождь н/о +12.7 +9.9 83 +11 +11 1009.8 1000.1
03 17.06 ЮЗ 3 20 км слаб. дождь н/о +12.7 +9.2 79 +12 +12 1009.9 1000.1
04 17.06 ЮЗ 3 15 км ливневой дождь н/о +12.4 +9.4 82 +11 +11 1010.1 1000.4
05 17.06 ЮЗ 3 12 км дождь н/о +12.0 +9.6 85 +11 +11 1010.4 1000.7
06 17.06 В 1 25 км в посл. час дождь н/о +12.2 +9.8 85 +13 +13 1010.8 1001.1 +11.8 13
07 17.06 В 1 29 км слаб. ливневой дождь н/о +12.7 +10.0 84 +14 +14 1011.0 1001.3
08 17.06 Ю 2 24 км в посл. час дождь н/о +13.8 +9.5 75 +14 +14 1011.1 1001.4
09 17.06 ЮЗ 4 40 км в посл. час дождь н/о +14.4 +8.1 66 +13 +13 1011.2 1001.5
10 17.06 Ю 4 40 км в посл. час дождь н/о +14.6 +8.4 66 +14 +14 1011.6 1001.9
11 17.06 Ю 3 26 км н/о +15.1 +8.4 64 +14 +14 1011.7 1002.0
12 17.06 ЮЗ 4 30 км н/о +15.3 +8.9 66 +14 +14 1011.9 1002.3 0.2
13 17.06 ЮЗ 4 30 км н/о +15.4 +9.1 66 +15 +15 1012.1 1002.5
14 17.06 ЮЗ 5 45 км н/о +17.1 +9.4 60 +17 +17 1012.1 1002.5
15 17.06 ЮЗ 5 40 км н/о +16.9 +8.8 59 +16 +16 1011.9 1002.3
16 17.06 ЮЗ 6 30 км н/о +16.4 +7.9 57 +15 +15 1012.1 1002.5
17 17.06 ЮЗ 4 40 км н/о +16.6 +8.6 59 +16 +16 1012.4 1002.8
18 17.06 ЮЗ 3 27 км н/о +16.1 +8.3 60 +16 +16 1012.3 1002.7 +17.9 0.2
19 17.06 Ю 3 26 км н/о +14.8 +8.1 64 +14 +14 1012.2 1002.6
20 17.06 Ю 1 22 км н/о +14.4 +8.8 69 +15 +15 1012.4 1002.7
21 17.06 ЮЗ 2 21 км н/о +13.7 +9.0 73 +13 +13 1012.7 1003.0
22 17.06 Ю 1 19 км н/о +13.1 +9.4 78 +14 +14 1013.0 1003.2
23 17.06 ЮВ 2 15 км слаб. ливневой дождь н/о +12.9 +10.4 85 +12 +12 1013.0 1003.3
00 18.06 Ю 3 19 км в посл. час дождь н/о +13.3 +10.4 83 +12 +12 1012.8 1003.1 0.0
01 18.06 Ю 2 19 км н/о +12.8 +10.1 84 +12 +12 1012.7 1002.9
02 18.06 штиль 0 19 км в посл. час дождь н/о +12.6 +10.3 86 +12 +12 1012.6 1002.9
03 18.06 Ю 2 19 км н/о +12.7 +10.5 86 +12 +12 1012.4 1002.6
04 18.06 ЮВ 2 19 км в посл. час дождь н/о +12.5 +10.3 86 +12 +12 1012.3 1002.5
05 18.06 В 2 700 м туман н/о +12.5 +10.4 87 +12 +12 1012.2 1002.5
06 18.06 В 1 11 км в посл. час туман н/о +13.1 +10.2 83 +14 +14 1012.3 1002.6 +12.1 0.0
07 18.06 Ю 1 28 км н/о +13.8 +9.0 73 +14 +14 1012.5 1002.8
08 18.06 ЮЗ 3 28 км н/о +13.8 +8.4 70 +13 +13 1012.8 1003.1
09 18.06 З 2 24 км н/о +14.4 +9.8 74 +14 +14 1012.8 1003.1
10 18.06 ЮЗ 3 35 км н/о +15.1 +9.0 67 +15 +15 1012.8 1003.1
11 18.06 ЮЗ 3 35 км н/о +15.3 +8.8 65 +15 +15 1012.8 1003.2
12 18.06 З 4 30 км н/о +16.4 +8.8 61 +16 +16 1012.4 1002.8
13 18.06 ЮЗ 4 50 км н/о +16.9 +7.5 54 +16 +16 1012.4 1002.8
14 18.06 З 4 27 км н/о +18.0 +8.4 53 +18 +18 1012.3 1002.7
15 18.06 ЮЗ 3 50 км н/о +17.1 +7.4 53 +17 +17 1012.2 1002.6
16 18.06 ЮЗ 2 40 км н/о +17.4 +6.8 50 +18 +18 1011.9 1002.3
17 18.06 З 3 35 км н/о +18.0 +7.1 49 +18 +18 1011.4 1001.9
18 18.06 ЮЗ 2 45 км н/о +17.4 +5.8 46 +18 +18 1011.1 1001.6 +18.4
19 18.06 ЮЗ 1 40 км н/о +17.1 +5.7 47 +18 +18 1011.0 1001.4
20 18.06 ЮВ 1 35 км н/о +15.4 +5.9 53 +16 +16 1010.9 1001.3
21 18.06 СЗ 1 35 км н/о +14.1 +7.9 66 +15 +15 1011.0 1001.3
22 18.06 штиль 0 30 км н/о +12.6 +8.7 77 +12 +12 1011.1 1001.3
23 18.06 штиль 0 40 км н/о +12.0 +9.0 82 +11 +11 1011.0 1001.2
00 19.06 штиль 0 35 км н/о +11.2 +8.9 86 +11 +11 1010.6 1000.8
01 19.06 штиль 0 30 км н/о +11.1 +8.6 85 +10 +10 1009.9 1000.1
02 19.06 штиль 0 35 км н/о +10.6 +8.4 86 +10 +10 1009.9 1000.1
03 19.06 штиль 0 40 км н/о +10.5 +8.3 86 +10 +10 1009.5 999.7
04 19.06 штиль 0 30 км н/о +10.3 +8.7 90 +10 +10 1009.2 999.4
05 19.06 штиль 0 35 км н/о +10.3 +8.8 90 +10 +10 1008.9 999.2
06 19.06 штиль 0 30 км н/о +11.2 +9.5 89 +11 +11 1008.9 999.1 +10.2
07 19.06 ЮВ 1 40 км н/о +12.6 +9.5 81 +13 +13 1008.5 998.8
08 19.06 СЗ 1 40 км н/о +14.3 +7.9 65 +16 +16 1008.1 998.4

 

Местоположение метеостанции Кесвик (Великобритания): широта 54.62 долгота -3.17 высота над уровнем моря 81 м.

В архиве по умолчанию представлена погода в Кесвике за последнюю неделю. Архивные данные за месяц целиком и за предыдущие месяцы, начиная с января 2011 года, Вы можете получить, выбрав интересующий диапазон дат из раскрывающегося списка и нажав кнопку "Ввод!".


*Определитесь, кто Вы:
робот инопланетянин человек

Внимание! Время в таблицах - всемирное. Для получения местного времени необходимо прибавить поправку, которая равна 0 ч.

Смотрите также архив погоды в соседних городах и на ближайших метеорологических станциях:

Погода на Мысе Сент-Бис (Великобритания) (30 км)
Погода в Шапе (Великобритания) (34 км)
Погода в Карлайле (Великобритания) (37 км)
Погода в Грэйт Дан Фелле (Великобритания) (47 км)
Погода в Варкопе (Великобритания) (49 км)
Погода на Острове Уолни (Великобритания) (56 км)
Погода в Дандреннане (Великобритания) (57 км)
Погода в Спадедэме (Великобритания) (62 км)
Погода в Эскдейлмьюире (Великобритания) (78 км)
Погода в Лагере Redesdale (Великобритания) (93 км)

Пояснения к столбцам:

Ветер - указаны скорость ветра в м/с - средняя за 10 мин, порывы в срок и между сроками (в фигурных скобках) и направление, откуда дует ветер: С - северный, СВ - северо-восточный, В - восточный, ЮВ - юго-восточный, Ю - южный, ЮЗ - юго-западный, З - западный, СЗ - северо-западный.
Видимость - горизонтальная дальность видимости в метрах или километрах. При видимости от 1 до 10 км при отсутствии осадков обычно наблюдается дымка, при ухудшении видимости до 1 км и менее - туман. В сухую погоду видимость может ухудшаться дымом, пылью или мглою.
Явления - указаны атмосферные явления, наблюдавшиеся в срок или в последний час перед сроком; фигурными скобками обозначены явления, наблюдавшиеся между сроками (за 1-3 часа до срока); квадратными скобками обозначены град или гололедные отложения с указанием их диаметра в мм.
Облачность - указаны через наклонную черту общая и нижняя облачность в баллах и высота нижней границы облаков в метрах; квадратными скобками обозначены формы облаков: Ci - перистые, Cs - перисто-слоистые, Cc - перисто-кучевые, Ac - высококучевые, As - высокослоистые, Sc - слоисто-кучевые, Ns - слоисто-дождевые, Cu - кучевые, Cb - кучево-дождевые. Подробнее классификацию облаков см. в Атласе облаков (PDF).
T - Температура воздуха - температура, измеренная на высоте 2 м над землей.
Td - Температура точки росы - температура, при понижении до которой содержащийся в воздухе водяной пар достигнет насыщения.
f - Относительная влажность воздуха - влажноcть воздуха, измеренная на высоте 2 м над землей.
Te - Эффективная температура - температура, которую ощущает одетый по сезону человек в тени. Характеристика душности погоды. При расчете учитывается влияние влажности воздуха и скорости ветра на теплоощущения человека.
Tes - Эффективная температура на солнце - температура, которую ощущает человек, с поправкой на солнечный нагрев. Характеристика знойности погоды. Зависит от высоты солнца над горизонтом, облачности и скорости ветра. Ночью, в пасмурную погоду, а также при ветре 12 м/с и более поправка равна нулю.
P - Атмосферное давление - приведенное к уровню моря атмосферное давление.
Po - Атмосферное давление - измеренное на уровне метеостанции атмосферное давление.
Tmin - Минимальная температура - минимум температуры воздуха на высоте 2 м над землей.
Tmax - Максимальная температура - максимум температуры воздуха на высоте 2 м над землей.
R - Количество осадков - Количество выпавших осадков за период времени, мм. При наведении курсора мыши на число - период времени, за который выпало указанное количество осадков.
R24 - Количество осадков - Количество выпавших осадков за 24 часа, мм.
S - Снежный покров - Высота снежного покрова, см. При наведении курсора мыши на число - состояние снежного покрова и степень покрытия местности в баллах.